Lid_Strength_Index
1 0 1 0 0 0 1 1 2 5 4 1 1 -1 -1 -1 -1 -2 -2 -0 0 1 1 1 0 1 1 0 1 1 0 -0 -0 1 1 0 -1 -1
0 0 0 0 0 0 0 1 1 2 4 1 1 -0 -1 -1 -1 -2 -1 1 1 1 1 1 1 1 1 1 1 1 1 1 1 1 1 -0 -0 -1
0 0 0 0 1 0 0 1 1 1 3 2 1 -0 -1 -0 -1 -1 -1 -1 -1 1 2 2 3 2 2 2 2 2 1 1 2 2 -0 -0 -0 0
0 1 1 0 0 0 1 1 1 1 2 3 1 1 0 -0 -0 -0 -0 -1 -1 0 2 3 3 3 3 3 3 3 3 3 3 0 0 0 0 0
0 1 1 0 1 1 1 1 1 1 1 2 2 1 1 0 0 -0 0 -0 -1 0 1 2 3 3 4 4 4 5 6 6 4 2 2 2 1 0
0 0 0 0 1 1 1 1 1 1 1 2 2 2 2 1 1 2 2 1 1 -0 0 1 1 2 3 4 4 5 7 7 6 5 4 4 3 2
0 -0 -0 0 1 1 1 1 1 2 2 2 3 2 3 3 3 1 2 1 1 0 0 -0 -0 -0 -0 3 1 3 6 6 6 6 6 6 6 5
1 0 0 0 0 2 2 2 1 1 2 3 3 3 3 3 2 2 2 2 3 -0 1 1 -0 0 -0 -1 1 3 5 6 6 6 6 6 7 6
1 1 1 0 0 0 1 3 2 2 2 1 2 2 2 1 1 2 2 2 2 1 0 2 0 1 -0 -0 4 4 5 6 6 6 6 7 7 7
0 0 1 1 1 1 0 1 1 0 0 1 1 1 1 -0 0 1 1 1 1 1 -0 3 1 1 -0 -1 4 5 6 6 6 6 7 7 8 9
0 -0 0 0 1 3 1 2 1 1 1 4 4 4 4 4 2 1 2 3 3 2 1 2 1 2 1 0 -0 5 6 6 7 7 6 8 9 9
-0 -0 1 1 3 4 1 2 3 2 1 1 1 1 3 1 5 0 1 3 3 3 1 2 2 2 3 1 -0 -0 -0 7 8 8 8 8 10 -0
1 2 1 3 4 6 6 2 2 1 1 1 1 1 1 1 1 0 0 1 3 3 1 1 2 2 2 2 1 0 -0 0 -0 3 10 10 10 4
2 1 1 5 7 7 6 5 7 6 1 2 2 2 2 2 1 1 0 0 0 1 -0 0 1 2 3 3 3 1 1 0 -0 0 -0 7 11 10
1 2 5 6 7 7 8 7 7 4 3 3 3 3 2 1 0 1 0 -0 0 -0 -0 -1 1 1 1 3 3 2 2 1 -0 0 0 0 0 1
2 2 3 5 6 5 6 3 3 3 3 3 3 2 1 1 2 1 2 2 2 2 -0 -0 -0 0 2 1 2 2 1 2 1 0 1 0 -0 -1
8 4 2 2 3 2 2 3 2 2 3 2 2 2 2 2 2 1 1 2 3 3 2 1 0 -0 1 1 3 2 2 1 1 1 1 2 1 -0
6 2 3 2 3 3 3 3 2 3 3 3 2 2 3 3 3 2 2 2 3 3 3 2 2 3 4 5 5 2 2 2 1 1 1 2 2 1
3 2 2 2 3 3 3 3 3 2 2 3 3 2 2 2 3 3 3 2 3 3 2 2 3 3 5 6 6 9 2 2 2 2 1 2 2 3
1 2 2 2 2 3 3 2 2 3 2 2 2 2 2 3 3 3 3 3 3 3 3 3 3 3 4 5 6 8 11 2 2 3 4 6 7 8
1 1 1 1 2 2 2 3 3 3 3 3 3 2 2 2 3 3 2 6 5 4 4 4 3 5 5 4 6 8 8 10 5 3 5 6 6 5
1 1 1 1 1 1 1 1 3 3 2 3 3 3 3 3 4 4 4 5 4 4 6 5 4 4 4 5 7 8 8 7 8 8 8 7 5 7
1 1 1 1 1 1 1 1 1 2 2 2 3 4 3 3 3 4 5 5 5 6 6 6 6 4 5 6 7 6 7 7 7 6 6 7 8 8